Vertical_Velocity
0 -1 -2 -2 0 1 2 0 -1 2 2 3 1 6 4 2 1 3 -0 0 -0 2 -1 0 -1 -1 1 -1 0 -0 -0 0 0 0 -0 0 -0 0 0 -0 1 0 0
-1 2 -1 -1 1 0 -1 -0 3 -2 3 4 -4 1 2 4 -0 -0 2 2 3 0 1 0 -1 -0 1 0 2 0 -1 -1 -1 -1 -1 -2 -1 1 -1 -1 -0 -0 1
1 1 0 -1 1 -1 1 7 6 4 -0 -0 3 6 5 0 -2 9 -1 1 2 1 1 0 0 -1 2 -1 2 2 1 0 2 2 0 1 -0 0 1 2 1 0 -1
-2 -0 -2 1 2 8 2 1 1 2 21 -3 1 -1 1 1 2 1 -2 0 1 1 -1 1 1 -0 1 -0 0 1 1 0 1 1 1 1 2 1 1 1 2 2 1
1 -1 0 1 4 2 9 3 -18 1 -5 11 -1 1 0 -2 3 0 1 -0 -1 1 -0 -0 1 0 -0 -0 -0 0 -0 -1 0 1 -1 -0 0 -2 -0 -0 -1 -1 0
-0 1 -1 -1 4 36 8 22 69 18 -5 2 1 -0 7 2 -2 -0 1 -4 1 2 0 -0 1 0 -0 0 1 1 1 0 0 1 1 0 -2 0 -0 -0 1 1 -1
-2 0 -2 2 5 -10 3 40 16 22 11 -3 4 6 4 -0 0 2 -1 0 0 -0 1 1 1 -1 -1 -1 -0 -0 -1 -0 1 1 1 -0 1 -0 0 -1 -2 -1 0
-2 1 -1 1 3 -3 -7 8 4 5 -1 4 3 1 -3 1 2 -1 2 -0 -1 -0 1 0 0 0 0 1 -1 -0 -1 -0 -0 1 2 1 -0 0 0 -1 1 0 0
-1 0 -1 -7 -2 -5 -3 -0 4 5 1 7 1 1 1 0 0 -4 1 0 1 1 0 1 1 2 -1 1 0 -1 0 1 -1 1 1 1 -1 0 1 -0 -3 -2 -1
-1 3 4 2 -1 9 -3 0 7 5 11 5 7 4 6 -1 -0 -1 -2 1 1 2 1 -0 1 1 0 1 -1 1 1 -3 -2 0 -1 2 1 0 -1 -0 0 2 -0
3 3 -0 -2 11 6 3 -2 1 0 -1 -0 -5 -11 -1 -2 1 -1 1 -0 2 -0 -1 -0 2 -1 -1 2 2 0 0 1 0 -2 1 2 1 1 1 -0 1 -1 0
2 4 6 2 0 6 -1 3 1 -2 2 -5 3 -0 -4 0 -0 -0 1 1 -2 1 -2 2 0 1 2 -1 2 0 1 0 -0 -0 -3 -2 -0 2 -1 -0 -0 -1 -1
-1 1 -0 3 4 2 3 1 -0 3 2 2 -0 -0 2 1 -0 -1 0 0 0 0 -1 3 -0 -0 1 -1 -0 2 1 1 2 3 1 -1 -1 -2 1 1 1 -0 -2
-1 0 1 0 -3 -1 4 3 1 3 1 1 5 1 -1 1 1 -1 3 2 0 0 2 0 -1 -0 -3 0 -1 -1 1 1 -0 3 -1 -2 -0 -3 -2 -1 1 1 -0
-3 -2 1 3 2 -2 -1 2 3 3 1 2 2 1 4 2 2 1 -1 0 -0 1 0 -1 1 -1 1 -0 2 0 -1 -2 1 -1 1 1 -0 1 -2 -0 -2 -1 -1
3 0 -3 -2 1 1 1 -2 -1 1 1 0 2 2 0 1 0 -0 0 1 -1 -1 -1 -0 -0 -0 2 1 -1 0 -2 -0 -2 -2 -1 2 0 3 1 -0 -3 -2 -1
1 2 4 -0 1 3 2 2 -2 2 2 0 -1 -2 1 -0 2 0 0 -0 -1 1 0 0 2 -0 -1 1 -1 0 2 -1 2 -0 -0 -1 -2 -2 -2 1 -1 -2 -1
-3 -2 1 -0 -3 -3 -2 -0 2 -0 2 1 1 5 1 1 0 -1 0 2 3 -0 2 -1 1 1 1 2 -2 -0 -0 -0 -1 -1 -1 -1 -2 -2 -2 -1 -2 -2 0
-0 -2 -1 -3 -1 0 -1 0 -1 -2 3 -1 -1 -2 -1 -2 2 1 1 0 0 0 -1 -1 -2 0 -1 1 -2 2 -1 -1 2 1 0 -2 -2 -2 -2 0 -0 -0 -0
-4 -2 1 -2 -2 -2 2 3 2 2 -3 -2 -1 -2 -1 0 -1 3 2 2 1 -0 -1 -1 1 0 -1 -2 -4 1 1 -0 2 2 2 1 0 -1 -0 -0 -1 -0 0
1 -1 -1 -1 -3 -0 2 1 3 3 -3 1 2 2 3 -1 1 -3 -1 -1 -1 1 -2 -1 4 -3 -1 1 1 3 2 -0 1 2 -1 -1 -2 -1 -1 -1 -1 -1 -0
-1 1 5 2 2 1 -0 -3 -0 -5 -1 -0 1 1 -1 -1 1 2 1 -1 -1 -1 0 1 1 -0 0 -3 -1 -1 -0 -2 0 0 -1 0 -2 -1 -3 -1 -1 -1 -0
-0 -2 -0 2 0 2 -2 -1 1 -4 -3 3 1 -3 -2 0 2 3 2 2 2 1 1 1 2 2 -0 0 -0 -1 -1 -0 -1 -2 -1 -2 -3 -1 -1 -3 -2 -1 -1
-4 3 1 1 -2 1 4 2 1 -0 3 6 -3 -2 -0 1 1 -1 0 -0 0 -0 1 1 0 0 -0 -0 -1 -2 -2 0 -2 2 -3 -2 -1 -4 -3 -3 -4 -3 -2
4 -2 -4 1 1 3 3 5 -2 3 2 -0 -1 2 2 1 0 0 -0 -0 1 1 1 -0 -0 0 1 1 0 -0 -2 -1 0 2 5 -3 1 -3 -5 -5 -5 -3 -3
-0 2 3 0 -2 7 1 4 -1 8 1 -1 1 -2 -2 0 2 2 2 1 0 1 2 2 0 1 1 1 1 1 -1 -0 0 2 5 -0 4 -4 -7 -6 -6 -6 -5
Height
5789 5788 5789 5791 5793 5796 5798 5801 5804 5805 5806 5808 5810 5811 5813 5816 5818 5820 5823 5825 5828 5831 5832 5834 5835 5836 5838 5839 5840 5841 5842 5843 5843 5843 5844 5846 5847 5849 5849 5849 5848 5849 5849
5784 5783 5784 5786 5788 5792 5794 5796 5798 5801 5802 5805 5805 5806 5808 5812 5814 5817 5820 5823 5827 5829 5831 5832 5834 5836 5837 5839 5839 5840 5840 5841 5841 5843 5845 5846 5847 5848 5848 5848 5849 5849 5849
5781 5780 5779 5781 5783 5786 5788 5791 5793 5798 5799 5800 5802 5804 5805 5806 5809 5813 5816 5821 5825 5827 5829 5831 5833 5834 5836 5838 5838 5840 5840 5841 5842 5843 5844 5845 5846 5847 5847 5848 5848 5849 5849
5776 5774 5773 5776 5778 5782 5786 5788 5789 5796 5797 5798 5798 5800 5803 5806 5808 5811 5813 5818 5822 5825 5827 5829 5831 5833 5835 5836 5837 5838 5839 5840 5842 5842 5844 5844 5845 5845 5846 5846 5846 5847 5847
5771 5770 5770 5773 5776 5781 5782 5774 5782 5790 5793 5795 5796 5798 5798 5802 5804 5808 5811 5815 5819 5822 5824 5826 5829 5831 5833 5833 5835 5837 5837 5839 5840 5841 5842 5843 5844 5844 5845 5846 5846 5847 5847
5768 5768 5769 5772 5772 5765 5777 5778 5765 5783 5789 5793 5795 5797 5797 5798 5802 5806 5809 5812 5817 5820 5822 5824 5827 5828 5830 5831 5833 5834 5836 5837 5838 5840 5840 5841 5842 5843 5844 5845 5846 5846 5847
5767 5767 5768 5769 5770 5775 5774 5774 5777 5777 5785 5789 5791 5794 5796 5798 5800 5804 5807 5811 5815 5817 5819 5821 5824 5826 5827 5829 5830 5832 5834 5835 5836 5838 5838 5839 5840 5841 5842 5843 5844 5844 5845
5766 5766 5767 5769 5771 5773 5776 5776 5780 5779 5782 5786 5789 5792 5793 5796 5798 5802 5806 5810 5813 5815 5817 5819 5822 5823 5824 5826 5828 5830 5831 5833 5834 5836 5837 5837 5838 5839 5840 5840 5841 5842 5843
5764 5764 5767 5770 5772 5773 5775 5776 5777 5778 5782 5784 5786 5790 5791 5795 5797 5800 5804 5806 5810 5812 5814 5816 5819 5820 5822 5824 5826 5827 5829 5830 5833 5834 5835 5837 5837 5837 5838 5839 5840 5840 5841
5764 5761 5764 5766 5768 5769 5773 5774 5774 5776 5778 5781 5785 5787 5790 5792 5796 5798 5801 5803 5806 5809 5811 5813 5816 5818 5820 5822 5823 5825 5826 5828 5830 5832 5833 5834 5835 5836 5836 5837 5837 5838 5839
5764 5763 5764 5765 5767 5767 5770 5772 5773 5772 5774 5779 5783 5785 5788 5790 5793 5796 5797 5800 5803 5806 5808 5810 5813 5815 5818 5819 5821 5822 5823 5825 5827 5828 5829 5830 5832 5833 5834 5835 5835 5836 5835
5764 5762 5761 5764 5764 5765 5768 5769 5772 5776 5776 5779 5781 5783 5785 5786 5790 5792 5794 5795 5799 5802 5805 5807 5809 5812 5814 5815 5817 5819 5820 5820 5821 5824 5826 5827 5828 5830 5831 5832 5832 5831 5831
5763 5762 5761 5759 5762 5765 5766 5768 5769 5771 5773 5776 5778 5780 5782 5784 5786 5789 5791 5793 5796 5799 5801 5803 5805 5808 5809 5810 5813 5815 5815 5816 5817 5818 5821 5822 5824 5825 5826 5826 5826 5826 5827
5760 5759 5759 5760 5762 5763 5762 5763 5764 5766 5769 5771 5773 5775 5778 5780 5783 5786 5787 5789 5791 5794 5795 5799 5801 5803 5805 5806 5807 5809 5811 5812 5812 5814 5815 5817 5818 5820 5820 5821 5821 5821 5821
5756 5756 5756 5756 5757 5759 5762 5761 5762 5764 5766 5767 5769 5771 5774 5776 5779 5780 5783 5785 5787 5789 5791 5793 5795 5797 5798 5800 5802 5803 5805 5806 5807 5809 5809 5810 5811 5812 5813 5814 5814 5814 5814
5751 5751 5752 5752 5753 5754 5756 5758 5760 5761 5762 5765 5766 5768 5769 5773 5775 5776 5777 5780 5782 5784 5785 5787 5788 5790 5792 5793 5795 5796 5798 5799 5801 5802 5803 5803 5803 5803 5805 5805 5806 5807 5807
5744 5745 5746 5747 5748 5749 5750 5752 5754 5754 5755 5758 5761 5762 5765 5767 5769 5771 5772 5775 5777 5778 5778 5779 5781 5783 5785 5786 5788 5787 5790 5791 5793 5794 5794 5794 5795 5795 5796 5797 5797 5797 5797
5738 5739 5740 5742 5743 5744 5744 5746 5748 5749 5751 5752 5754 5756 5758 5760 5762 5764 5767 5768 5769 5770 5771 5772 5773 5775 5776 5778 5778 5779 5781 5782 5783 5785 5784 5784 5785 5785 5786 5786 5786 5786 5787
5732 5733 5735 5736 5737 5738 5739 5740 5742 5743 5744 5746 5748 5750 5751 5752 5754 5755 5757 5759 5760 5762 5763 5763 5764 5766 5768 5769 5770 5770 5771 5774 5772 5774 5774 5774 5774 5775 5775 5776 5775 5775 5775
5721 5723 5726 5727 5728 5729 5731 5732 5734 5735 5738 5738 5739 5740 5742 5743 5745 5746 5747 5749 5750 5753 5753 5754 5754 5757 5758 5759 5761 5761 5761 5762 5762 5763 5763 5762 5762 5762 5763 5763 5763 5763 5763
5708 5711 5714 5715 5717 5719 5721 5722 5723 5724 5725 5726 5728 5730 5733 5734 5735 5736 5736 5738 5740 5742 5742 5743 5743 5745 5747 5748 5749 5750 5750 5750 5751 5751 5751 5751 5750 5749 5750 5750 5750 5750 5750
5701 5702 5703 5705 5707 5709 5710 5711 5712 5713 5714 5716 5718 5720 5720 5721 5722 5723 5724 5726 5729 5730 5731 5732 5732 5734 5734 5735 5737 5737 5737 5738 5738 5738 5738 5738 5737 5737 5736 5736 5736 5737 5737
5688 5689 5691 5693 5694 5695 5696 5698 5700 5702 5704 5706 5707 5707 5708 5709 5711 5712 5713 5715 5716 5716 5717 5718 5719 5721 5721 5723 5723 5724 5724 5725 5725 5725 5725 5725 5724 5723 5723 5722 5722 5723 5723
5677 5677 5678 5679 5680 5682 5684 5685 5686 5687 5689 5692 5693 5695 5696 5698 5699 5700 5701 5701 5702 5703 5704 5704 5706 5707 5708 5709 5710 5710 5710 5711 5711 5713 5711 5711 5711 5709 5708 5708 5708 5708 5708
5664 5664 5665 5666 5667 5668 5669 5670 5670 5672 5674 5676 5678 5679 5681 5683 5685 5686 5687 5688 5689 5690 5691 5691 5692 5692 5693 5694 5694 5695 5696 5696 5697 5698 5699 5698 5697 5695 5694 5693 5692 5692 5692
5649 5649 5650 5652 5654 5656 5655 5656 5656 5658 5658 5658 5661 5663 5665 5667 5669 5671 5672 5674 5675 5676 5676 5677 5678 5678 5679 5679 5680 5680 5680 5681 5682 5682 5684 5685 5685 5681 5678 5677 5676 5675 5674